• In Czech Republic
  • List of Countries
  • For 7 days
  • Water Temperature
  • Satellite Maps
  • Weather Map
  • Weather Widgets
  • user-avatar
    Login

    Hourly Weather Townsville

    Today, 17 October, Tuesday

    Time Temperature Precipitation Wind Pressure Humidity
    00:00 +22°C° 0.4 mm 4 mps 752 mmHg 92%
    01:00 +21°C° 0.4 mm 4 mps 751 mmHg 92%
    02:00 +21°C° 0.1 mm 3 mps 751 mmHg 93%
    03:00 +21°C° 0.1 mm 3 mps 751 mmHg 93%
    04:00 +21°C° 0 mm 3 mps 750 mmHg 92%
    05:00 +21°C° 0.1 mm 2 mps 751 mmHg 90%
    06:00 +21°C° 0.1 mm 2 mps 751 mmHg 88%
    07:00 +23°C° 0.1 mm 2 mps 751 mmHg 86%
    08:00 +24°C° 0.2 mm 2 mps 752 mmHg 80%
    09:00 +26°C° 0.2 mm 2 mps 752 mmHg 74%
    10:00 +28°C° 0 mm 2 mps 753 mmHg 70%
    11:00 +27°C° 1.6 mm 2 mps 752 mmHg 73%
    12:00 +27°C° 1.6 mm 2 mps 752 mmHg 76%
    13:00 +26°C° 1.6 mm 3 mps 751 mmHg 78%
    14:00 +26°C° 2.3 mm 2 mps 751 mmHg 81%
    15:00 +25°C° 2.3 mm 2 mps 751 mmHg 83%
    16:00 +25°C° 0 mm 2 mps 750 mmHg 86%
    17:00 +24°C° 1.8 mm 3 mps 751 mmHg 88%
    18:00 +24°C° 1.8 mm 3 mps 751 mmHg 90%
    19:00 +22°C° 1.8 mm 3 mps 752 mmHg 92%
    20:00 +22°C° 0.6 mm 3 mps 752 mmHg 93%
    21:00 +22°C° 0.6 mm 3 mps 752 mmHg 94%
    22:00 +22°C° 0 mm 3 mps 752 mmHg 96%
    23:00 +21°C° 0.6 mm 3 mps 752 mmHg 96%

    Tomorrow, 18 October, Wednesday

    Time Temperature Precipitation Wind Pressure Humidity
    00:00 +21°C° 0.6 mm 3 mps 752 mmHg 96%
    01:00 +21°C° 0.6 mm 3 mps 751 mmHg 96%
    02:00 +21°C° 0.2 mm 3 mps 751 mmHg 96%
    03:00 +21°C° 0.2 mm 3 mps 751 mmHg 96%
    04:00 +21°C° 0.2 mm 3 mps 751 mmHg 97%
    05:00 +21°C° 0 mm 3 mps 751 mmHg 95%
    06:00 +22°C° 0 mm 3 mps 751 mmHg 93%
    07:00 +22°C° 0 mm 3 mps 751 mmHg 91%
    08:00 +24°C° 0.5 mm 3 mps 752 mmHg 86%
    09:00 +25°C° 0.5 mm 3 mps 752 mmHg 81%
    10:00 +27°C° 0.5 mm 3 mps 753 mmHg 75%
    11:00 +27°C° 0.6 mm 3 mps 752 mmHg 75%
    12:00 +27°C° 0.6 mm 3 mps 751 mmHg 75%
    13:00 +27°C° 0.6 mm 3 mps 751 mmHg 74%
    14:00 +27°C° 0.1 mm 4 mps 751 mmHg 74%
    15:00 +28°C° 0.1 mm 4 mps 751 mmHg 74%
    16:00 +28°C° 0.1 mm 4 mps 751 mmHg 74%
    17:00 +27°C° 0.2 mm 4 mps 751 mmHg 79%
    18:00 +26°C° 0.2 mm 4 mps 751 mmHg 85%
    19:00 +25°C° 0.2 mm 4 mps 751 mmHg 91%
    20:00 +25°C° 0.1 mm 4 mps 752 mmHg 92%
    21:00 +25°C° 0.1 mm 4 mps 752 mmHg 92%
    22:00 +25°C° 0.1 mm 3 mps 753 mmHg 93%
    23:00 +25°C° 0.3 mm 3 mps 753 mmHg 95%

    Day after tomorrow, 19 October, Thursday

    Time Temperature Precipitation Wind Pressure Humidity
    00:00 +24°C° 0.3 mm 3 mps 752 mmHg 96%
    01:00 +24°C° 0.3 mm 3 mps 752 mmHg 97%
    02:00 +24°C° 0.7 mm 3 mps 752 mmHg 96%
    03:00 +25°C° 0.7 mm 3 mps 752 mmHg 96%
    04:00 +25°C° 0.7 mm 3 mps 752 mmHg 95%
    05:00 +25°C° 0.3 mm 3 mps 752 mmHg 94%
    06:00 +25°C° 0.3 mm 4 mps 753 mmHg 92%
    07:00 +26°C° 0.3 mm 4 mps 753 mmHg 91%
    08:00 +26°C° 0.6 mm 4 mps 754 mmHg 88%
    09:00 +27°C° 0.6 mm 4 mps 754 mmHg 86%
    10:00 +27°C° 0.6 mm 5 mps 754 mmHg 83%
    11:00 +28°C° 0.8 mm 5 mps 754 mmHg 78%
    12:00 +30°C° 0.8 mm 5 mps 754 mmHg 72%
    13:00 +32°C° 0.8 mm 6 mps 753 mmHg 66%
    14:00 +29°C° 0.8 mm 6 mps 753 mmHg 73%
    15:00 +28°C° 0.8 mm 6 mps 753 mmHg 79%
    16:00 +27°C° 0.8 mm 6 mps 752 mmHg 86%
    17:00 +26°C° 0.8 mm 6 mps 753 mmHg 88%
    18:00 +26°C° 0.8 mm 6 mps 754 mmHg 89%
    19:00 +26°C° 0.8 mm 6 mps 754 mmHg 90%
    20:00 +26°C° 0.7 mm 6 mps 755 mmHg 91%
    21:00 +26°C° 0.7 mm 6 mps 755 mmHg 92%
    22:00 +26°C° 0.7 mm 6 mps 755 mmHg 92%
    23:00 +24°C° 0.7 mm 6 mps 755 mmHg 93%

    20 October, Friday

    Time Temperature Precipitation Wind Pressure Humidity
    00:00 +24°C° 0.7 mm 6 mps 755 mmHg 93%
    01:00 +25°C° 0.7 mm 5 mps 755 mmHg 93%
    02:00 +25°C° 0.4 mm 5 mps 754 mmHg 93%
    03:00 +25°C° 0.4 mm 5 mps 754 mmHg 94%
    04:00 +25°C° 0.4 mm 5 mps 754 mmHg 94%
    05:00 +25°C° 0.4 mm 5 mps 754 mmHg 93%
    06:00 +25°C° 0.4 mm 5 mps 755 mmHg 92%
    07:00 +26°C° 0.4 mm 5 mps 755 mmHg 91%
    08:00 +27°C° 0.3 mm 5 mps 755 mmHg 86%
    09:00 +28°C° 0.3 mm 5 mps 755 mmHg 81%
    10:00 +29°C° 0.3 mm 5 mps 756 mmHg 76%
    11:00 +29°C° 0.2 mm 5 mps 755 mmHg 73%
    12:00 +30°C° 0.2 mm 5 mps 754 mmHg 70%
    13:00 +32°C° 0.2 mm 5 mps 754 mmHg 67%
    14:00 +30°C° 0.3 mm 5 mps 753 mmHg 69%
    15:00 +29°C° 0.3 mm 5 mps 753 mmHg 72%
    16:00 +29°C° 0.3 mm 5 mps 752 mmHg 75%
    17:00 +28°C° 0 mm 5 mps 753 mmHg 79%
    18:00 +27°C° 0 mm 5 mps 753 mmHg 83%
    19:00 +26°C° 0 mm 5 mps 754 mmHg 87%
    20:00 +26°C° 0.1 mm 5 mps 754 mmHg 88%
    21:00 +25°C° 0.1 mm 4 mps 754 mmHg 89%
    22:00 +25°C° 0.1 mm 4 mps 755 mmHg 89%
    23:00 +25°C° 0 mm 4 mps 754 mmHg 90%

    21 October, Saturday

    Time Temperature Precipitation Wind Pressure Humidity
    00:00 +25°C° 0 mm 4 mps 754 mmHg 90%
    01:00 +24°C° 0 mm 3 mps 753 mmHg 91%
    02:00 +24°C° 0 mm 3 mps 753 mmHg 92%
    03:00 +24°C° 0 mm 3 mps 752 mmHg 92%
    04:00 +24°C° 0 mm 2 mps 752 mmHg 93%
    05:00 +24°C° 0 mm 2 mps 752 mmHg 90%
    06:00 +25°C° 0 mm 2 mps 752 mmHg 88%
    07:00 +26°C° 0 mm 2 mps 753 mmHg 85%
    08:00 +27°C° 0 mm 2 mps 753 mmHg 80%
    09:00 +28°C° 0 mm 2 mps 753 mmHg 75%
    10:00 +29°C° 0 mm 2 mps 753 mmHg 69%
    11:00 +29°C° 0.3 mm 2 mps 752 mmHg 70%
    12:00 +29°C° 0.3 mm 2 mps 752 mmHg 71%
    13:00 +29°C° 0.3 mm 2 mps 751 mmHg 71%
    14:00 +28°C° 0.5 mm 2 mps 751 mmHg 74%
    15:00 +28°C° 0.5 mm 2 mps 750 mmHg 76%
    16:00 +28°C° 0.5 mm 3 mps 750 mmHg 78%
    17:00 +27°C° 2.4 mm 2 mps 750 mmHg 83%
    18:00 +26°C° 2.4 mm 2 mps 750 mmHg 89%
    19:00 +25°C° 2.4 mm 2 mps 751 mmHg 94%
    20:00 +25°C° 4.8 mm 2 mps 751 mmHg 94%
    21:00 +25°C° 4.8 mm 2 mps 751 mmHg 95%
    22:00 +25°C° 4.8 mm 2 mps 751 mmHg 95%
    23:00 +25°C° 3.7 mm 2 mps 751 mmHg 96%

    22 October, Sunday

    Time Temperature Precipitation Wind Pressure Humidity
    00:00 +25°C° 3.7 mm 2 mps 750 mmHg 96%
    01:00 +24°C° 3.7 mm 1 mps 750 mmHg 96%
    02:00 +24°C° 0.9 mm 1 mps 750 mmHg 95%
    03:00 +24°C° 0.9 mm 1 mps 749 mmHg 95%
    04:00 +24°C° 0.9 mm 1 mps 749 mmHg 94%
    05:00 +24°C° 0.2 mm 2 mps 750 mmHg 93%
    06:00 +24°C° 0.2 mm 2 mps 750 mmHg 91%
    07:00 +25°C° 0.2 mm 3 mps 751 mmHg 90%
    08:00 +26°C° 0 mm 3 mps 751 mmHg 80%
    09:00 +28°C° 0 mm 3 mps 751 mmHg 70%
    10:00 +30°C° 0 mm 3 mps 751 mmHg 60%
    11:00 +31°C° 0 mm 3 mps 750 mmHg 53%
    12:00 +33°C° 0 mm 3 mps 750 mmHg 46%
    13:00 +35°C° 0 mm 3 mps 749 mmHg 38%
    14:00 +35°C° 0 mm 4 mps 749 mmHg 39%
    15:00 +34°C° 0 mm 4 mps 748 mmHg 40%
    16:00 +34°C° 0 mm 4 mps 748 mmHg 41%
    17:00 +32°C° 0.1 mm 4 mps 749 mmHg 52%
    18:00 +29°C° 0.1 mm 3 mps 749 mmHg 62%
    19:00 +27°C° 0.1 mm 3 mps 750 mmHg 73%
    20:00 +26°C° 0.1 mm 3 mps 750 mmHg 78%
    21:00 +26°C° 0.1 mm 2 mps 750 mmHg 84%
    22:00 +25°C° 0.1 mm 2 mps 751 mmHg 90%
    23:00 +25°C° 0.1 mm 1 mps 751 mmHg 91%
    Show more